Raduga

operational
NORAD ID: 23010 Int'l Des: 1994-012 Owner: VKS Country: RU
HEOCIRCULAR

Über Raduga

Beschreibung wird geladen...

Live-Position

3D-Globus wird geladen...

Nächste Überflüge

Höhenverlauf

Altitude vs Time

uPlot chart will show altitude changes over time

Zweizeiliger Elementsatz

1 23010U 94012A 26061.66217582 -.00000158 00000-0 00000-0 0 9999
2 23010 14.1779 349.0273 0000659 174.8743 315.5611 1.00206192117281
Epoch: 2. März 2026 • Age: 31 hours

Aktueller Status

Höhe 35807.6 km
Geschwindigkeit 3.07 km/s
Subsatellitenpunkt -1.60°S, 80.7°E
Startdatum 18. Feb. 1994
Alter 32 years
Typ other

Technische Details

Klassifizierung Payload
Masse 1965.00 kg
Trockenmasse 1800.00 kg
Gesamtmasse 1965.00 kg
Länge 5.50 m
Durchmesser 2.50 m
Spannweite 9.50 m
Form Step Cyl + 2 Pan
Hersteller NPOPMR
Bus-Typ Raduga
Phasenstatus In Orbit
Besitzer/Staat VKS/RU

Große Konstellationen

Loading constellations...